GAOFEN 3 03

导读

高分三号03星(GAOFEN 3 03)是中国于2022年4月6日发射的合成孔径雷达卫星,隶属于中国高分专项工程。它与在轨的高分三号系列卫星组网,可实现全天时、全天候成像,能服务于海洋观测、防灾减灾、气象监测、地理测绘等领域,提升中国微波遥感数据的获取能力,支撑国民经济与生态文明建设。

基本信息
目录编号:
52200
目录名称:
GAOFEN 3 03
国际标识:
2022-035A
轨道中心:
EARTH
卫星名称:
GAOFEN 3 03
卫星全名:
--
卫星状态:
在轨 (已飞行1528 天)
发射日期:
2022-04-06 UTC
国别 :
中国 (CN)
星等 :
--
轨道信息
数据来源 国际轨道数据 AOE轨道数据
星历时间 2026-06-12T15:17:31+0800
12小时前
查看轨道信息
2026-06-11T17:00:00+0800
1天前
查看轨道信息
半长轴 7129.328km 7129.318km
偏心率 0.0001193 0.0001131
轨道倾角 98.406° 98.406°
近地点辐角 99.962° 98.803°
升交点赤经 171.955° 171.043°
平近点角 260.171° 121.671°
近地点 750.34km 750.374km
远地点 752.042km 751.988km
周期 99.846分钟 99.846分钟
每日圈数 14.422148 14.422177
详细信息
使用方式:
暂无
2D轨道图
3D轨道图
轨道高度分析图
轨道倾角分析图
轨道综合分析图
查看轨道综合分析图